Weather History for Fort Drum, NY

Change the Weather History Date:

Tuesday, November 20, 2012

  Actual Average Record
Temperature  
Mean Temperature 40 °F -  
Max Temperature 48 °F 41 °F 57 °F (2011)
Min Temperature 31 °F 27 °F 15 °F (2013)
Degree Days  
Heating Degree Days 26    
Moisture  
Dew Point 28 °F    
Average Humidity 68    
Maximum Humidity 90    
Minimum Humidity 43    
Precipitation  
Precipitation 0.00 in - - ()
Sea Level Pressure  
Sea Level Pressure 30.19 in    
Wind  
Wind Speed 5 mph (East)    
Max Wind Speed 10 mph    
Max Gust Speed -    
Visibility 10 miles    
Events      
Averages and records for this station are not official NWS values.
T = Trace of Precipitation, MM = Missing Value Source: NWS Daily Summary

Daily Weather History Graph

Daily Weather History Graph

Search for Another Location

Airport:

Trip Planner

Search our weather history database for the weather conditions in past years. The results will help you decide how hot, cold, wet, or windy it might be!

Date:

Astronomy

Nov. 20, 2012 Rise Set
Actual Time 7:05 AM EST 4:31 PM EST
Civil Twilight 6:33 AM EST 5:03 PM EST
Nautical Twilight 5:58 AM EST 5:38 PM EST
Astronomical Twilight 5:23 AM EST 6:13 PM EST
Moon 12:30 PM EST (11/20) No Moon Set
Length of Visible Light 10h 30m
Length of Day
9h 26m
Waxing Crescent, 51% of the Moon is Illuminated
Nov 20
Waxing Crescent
Nov 28
Full
Dec 6
Last Quarter
Dec 13
New
Dec 20
First Quarter

Hourly Weather History & Observations

Time (EST) Temp. Windchill Dew Point Humidity Pressure Visibility Wind Dir Wind Speed Gust Speed Precip Events Conditions
12:55 AM 31.6 °F 24.4 °F 27.1 °F 83% 30.25 in 10.0 mi SE 8.1 mph - N/A   Clear
1:55 AM 31.1 °F 23.7 °F 26.1 °F 82% 30.24 in 10.0 mi SE 8.1 mph - N/A   Clear
2:55 AM 31.8 °F 24.6 °F 26.1 °F 79% 30.23 in 10.0 mi SE 8.1 mph - N/A   Clear
3:55 AM 33.1 °F 24.9 °F 25.7 °F 74% 30.22 in 10.0 mi SE 10.4 mph - N/A   Scattered Clouds
4:55 AM 32.5 °F 26.2 °F 25.5 °F 75% 30.22 in 10.0 mi SE 6.9 mph - N/A   Clear
5:55 AM 31.6 °F - 25.9 °F 79% 30.22 in 10.0 mi Calm Calm - N/A   Mostly Cloudy
6:55 AM 32.2 °F 28.9 °F 26.4 °F 79% 30.23 in 10.0 mi South 3.5 mph - N/A   Overcast
7:55 AM 32.5 °F 27.1 °F 26.6 °F 79% 30.23 in 10.0 mi East 5.8 mph - N/A   Partly Cloudy
8:55 AM 34.7 °F 28.8 °F 26.6 °F 72% 30.22 in 10.0 mi SE 6.9 mph - N/A   Mostly Cloudy
9:55 AM 37.9 °F - 27.1 °F 65% 30.23 in 10.0 mi Calm Calm - N/A   Overcast
10:55 AM 41.2 °F - 26.8 °F 57% 30.21 in 10.0 mi Calm Calm - N/A   Overcast
11:55 AM 44.2 °F 42.7 °F 26.4 °F 50% 30.18 in 10.0 mi ESE 3.5 mph - N/A   Overcast
12:55 PM 46.2 °F 45.0 °F 27.5 °F 48% 30.16 in 10.0 mi SE 3.5 mph - N/A   Overcast
1:55 PM 48.0 °F - 28.0 °F 46% 30.16 in 10.0 mi Calm Calm - N/A   Scattered Clouds
2:55 PM 48.0 °F - 28.0 °F 46% 30.14 in 10.0 mi East 3.5 mph - N/A   Partly Cloudy
3:15 PM 48.2 °F - 28.4 °F 46% 30.14 in 10.0 mi NE 4.6 mph - N/A   Light Drizzle
3:19 PM 48.2 °F - 26.6 °F 43% 30.14 in 10.0 mi NE 4.6 mph - N/A   Clear
3:55 PM 46.6 °F - 29.7 °F 52% 30.16 in 10.0 mi North 4.6 mph - 0.00 in   Clear
4:55 PM 41.9 °F 39.0 °F 30.0 °F 63% 30.16 in 10.0 mi NNE 4.6 mph - N/A   Overcast
5:55 PM 38.8 °F 34.6 °F 30.4 °F 72% 30.17 in 10.0 mi NE 5.8 mph - N/A   Scattered Clouds
6:55 PM 38.8 °F 34.6 °F 30.9 °F 73% 30.18 in 10.0 mi NE 5.8 mph - N/A   Overcast
7:55 PM 37.4 °F 34.9 °F 30.2 °F 75% 30.18 in 10.0 mi ENE 3.5 mph - N/A   Overcast
8:55 PM 34.9 °F - 30.0 °F 82% 30.19 in 10.0 mi Calm Calm - N/A   Overcast
9:55 PM 34.3 °F - 29.7 °F 83% 30.18 in 10.0 mi Calm Calm - N/A   Overcast
10:55 PM 32.9 °F 28.5 °F 29.3 °F 87% 30.17 in 10.0 mi NE 4.6 mph - N/A   Overcast
11:55 PM 32.0 °F 28.7 °F 29.3 °F 90% 30.17 in 10.0 mi ESE 3.5 mph - N/A   Clear